カタログに戻る

FENGYUN 1C DEB

運用中SSO
NORAD 31945·DEBRIS·🇨🇳 China

打ち上げ May 10, 1999 から Taiyuan Satellite Launch Center

Loading…

次のパス (今後24時間)

TLE

最新Source: Space-Track

元期: Sep 12, 2026, 04:46 UTC

1 31945U 99025CMW 26255.19875236  .00001840  00000-0  83194-3 0  9999
2 31945  98.9519 340.5577 0059610 222.2723 137.3852 14.22387013990814

AllMySatでFENGYUN 1C DEBをリアルタイム追跡

Download on the App Store